This is the latest recevied weather packets stored in our database for station/object K5FEP. If no packets are shown the sender has not sent any weather packets the latest 1 day(s).
| Time | Temp. | Humidity | Pressure | Rain* | Wind** | Luminosity | Snow |
|---|---|---|---|---|---|---|---|
| 1778066903 | 17.78° C | 65% | 1011.9 hPa | 0 mm | - | 25 W/m² | - |
| 1778066600 | 17.78° C | 65% | 1011.7 hPa | 0 mm | - | 24 W/m² | - |
| 1778065693 | 17.78° C | 65% | 1011.4 hPa | 0 mm | - | 25 W/m² | - |
| 1778063573 | 17.78° C | 63% | 1011.5 hPa | 0 mm | - | 7 W/m² | - |
| 1778062665 | 17.78° C | 64% | 1011.4 hPa | 0 mm | - | 2 W/m² | - |
| 1778061152 | 17.78° C | 65% | 1011.5 hPa | 0 mm | - | 0 W/m² | - |
| 1778060849 | 17.78° C | 64% | 1011.6 hPa | 0 mm | - | 0 W/m² | - |
| 1778060547 | 17.78° C | 64% | 1011.5 hPa | 0 mm | - | 0 W/m² | - |
| 1778060246 | 17.78° C | 65% | 1011.5 hPa | 0 mm | - | 0 W/m² | - |
| 1778059942 | 17.78° C | 66% | 1011.6 hPa | 0 mm | - | 0 W/m² | - |
| 1778059640 | 17.78° C | 66% | 1011.8 hPa | 0 mm | - | 0 W/m² | - |
| 1778059035 | 17.78° C | 65% | 1011.5 hPa | 0 mm | - | 0 W/m² | - |
| 1778058430 | 17.78° C | 66% | 1011.7 hPa | 0 mm | - | 0 W/m² | - |
| 1778057519 | 17.78° C | 66% | 1012.1 hPa | 0 mm | - | 0 W/m² | - |
| 1778057216 | 17.78° C | 66% | 1012.1 hPa | 0 mm | - | 0 W/m² | - |
| 1778056004 | 17.22° C | 67% | 1012.1 hPa | 0 mm | - | 0 W/m² | - |
| 1778055398 | 17.22° C | 68% | 1012.2 hPa | 0 mm | - | 0 W/m² | - |
| 1778055095 | 17.22° C | 67% | 1012.1 hPa | 0 mm | - | 0 W/m² | - |
| 1778054793 | 17.22° C | 68% | 1011.9 hPa | 0 mm | - | 0 W/m² | - |
| 1778054187 | 17.22° C | 68% | 1011.7 hPa | 0 mm | - | 0 W/m² | - |
| 1778053883 | 17.22° C | 68% | 1011.9 hPa | 0 mm | - | 0 W/m² | - |
| 1778053278 | 17.78° C | 69% | 1012.1 hPa | 0 mm | - | 0 W/m² | - |
| 1778052976 | 17.78° C | 69% | 1012.1 hPa | 0 mm | - | 0 W/m² | - |
| 1778052369 | 17.78° C | 69% | 1011.9 hPa | 0 mm | - | 0 W/m² | - |
| 1778052068 | 17.78° C | 69% | 1012.1 hPa | 0 mm | - | 0 W/m² | - |
* Rain latest hour (hover to see other rain measurements)
** Current wind speed in m/s (hover to see current wind gust speed)